User: anonymous   Login
Location: Ash Swamp
(41.5170°N, 74.6157°W)
Time: 14:08:25
(UTC+00:00)
Language:

Cosmos 1346 Rocket - Orbit

View from above orbital plane
View from above orbital plane
View from above satellite
View from above satellite

Ground track
Ground track

The orbit data is extracted from the following two-line orbital elements,

1 13121U 82027B   20274.99526349  .00000239  00000-0  13620-4 0  9999
2 13121  81.1672 177.8432 0008713  98.6202 261.6010 15.08937094 98192
Epoch (UTC): 30 September 2020 23:53:10
Eccentricity: 0.0008713
inclination: 81.1672°
perigee height: 533 km
apogee height: 545 km
right ascension of ascending node: 177.8432°
argument of perigee: 98.6202°
revolutions per day: 15.08937094
mean anomaly at epoch: 261.6010°
orbit number at epoch: 9819

The dashed part of the orbit path shows where the satellite is in the earth's shadow,  

DLR